This demonstration page uses our WeatherBlox Daily Observations layout. Learn more.

Left ArrowRight Arrow

Hourly Observations for August 22, 2019

Temp ( °F °C ) Dew Point ( °F °C ) Humidity (%) Winds ( mph kmh ) Pressure ( in mb ) Visibility ( mi km ) Precip ( " mm )
12:15 am 00:15 Clear 71 21.8 71 21.8 100 100 SSW 3 6 29.96 1015 10 16 0.00 0.00
12:35 am 00:35 Clear 70 21.2 70 21.2 100 100 SW 3 6 29.97 1015 10 16 0.00 0.00
12:55 am 00:55 Clear 71 21.5 71 21.5 100 100 Calm 29.96 1015 10 16 0.00 0.00
1:15 am 01:15 Clear 71 21.5 71 21.5 100 100 Calm 29.96 1015 10 16 0.00 0.00
1:35 am 01:35 Clear 71 21.7 71 21.7 100 100 WSW 5 7 29.96 1015 10 16 0.00 0.00
1:55 am 01:55 Clear 72 22 72 22 100 100 W 5 7 29.96 1015 10 16 0.00 0.00
2:15 am 02:15 Clear 72 22 72 22 100 100 WNW 5 7 29.95 1014 10 16 0.00 0.00
2:35 am 02:35 Clear 72 22 72 22 100 100 WNW 3 6 29.95 1014 10 16 0.00 0.00
2:55 am 02:55 Partly Cloudy 71 21.8 71 21.8 100 100 WNW 5 7 29.95 1014 10 16 0.00 0.00
3:15 am 03:15 Partly Cloudy 71 21.7 71 21.7 100 100 WNW 5 7 29.94 1014 10 16 0.00 0.00
3:35 am 03:35 Mostly Cloudy with Light Rain 71 21.6 71 21.6 100 100 WNW 3 6 29.95 1014 10 16 0.00 0.00
3:55 am 03:55 Cloudy with Light Rain 71 21.4 71 21.4 100 100 WNW 3 6 29.96 1015 10 16 0.00 0.00
4:15 am 04:15 Mostly Cloudy with Drizzle 70 21.3 70 21.3 100 100 NW 7 11 29.95 1014 10 16 0.00 0.00
4:35 am 04:35 Cloudy 70 21.2 70 21.2 100 100 WSW 5 7 29.96 1015 10 16 0.00 0.00
4:55 am 04:55 Cloudy with Rain 70 21 70 21 100 100 SSW 8 13 29.98 1015 7 11 0.02 0.51
5:15 am 05:15 Cloudy with Heavy Rain 69 20.8 69 20.8 100 100 SSW 16 26 29.99 1016 4 6 0.11 2.79
5:35 am 05:35 Cloudy with Heavy Rain 67 19.6 67 19.6 100 100 SW 7 11 29.97 1015 3 4 0.28 7.11
5:55 am 05:55 Cloudy with Rain 67 19.7 67 19.7 100 100 SW 3 6 29.96 1014 7 11 0.33 8.38
6:15 am 06:15 Cloudy with Rain 67 19.6 67 19.6 100 100 Calm 29.96 1014 10 16 0.02 0.51
6:35 am 06:35 Partly Cloudy with Light Rain 67 19.5 67 19.5 100 100 Calm 29.96 1014 10 16 0.02 0.51
6:55 am 06:55 Partly Cloudy with Light Rain 67 19.5 67 19.5 100 100 Calm 29.96 1014 10 16 0.02 0.51
7:15 am 07:15 Cloudy 67 19.6 67 19.6 100 100 Calm 29.97 1015 10 16 0.00 0.00
7:35 am 07:35 Cloudy with Rain 67 19.5 67 19.5 100 100 Calm 29.97 1015 7 11 0.01 0.25
7:55 am 07:55 Partly Cloudy with Light Rain 67 19.4 67 19.4 100 100 Calm 29.96 1015 10 16 0.02 0.51
8:15 am 08:15 Mostly Cloudy 67 19.5 67 19.5 100 100 NW 3 6 29.95 1014 10 16 0.00 0.00
8:35 am 08:35 Cloudy with Light Rain 67 19.5 67 19.5 100 100 Calm 29.94 1014 10 16 0.00 0.00
8:55 am 08:55 Partly Cloudy 68 19.9 68 19.9 100 100 S 3 6 29.94 1014 10 16 0.00 0.00
9:15 am 09:15 Mostly Cloudy 68 20 68 20 100 100 Calm 29.94 1014 10 16 0.00 0.00
9:35 am 09:35 Cloudy 69 20.4 69 20.4 100 100 Calm 29.94 1014 10 16 0.00 0.00
9:55 am 09:55 Cloudy 70 20.9 70 20.9 100 100 W 5 7 29.96 1015 10 16 0.00 0.00
10:15 am 10:15 Partly Cloudy 70 21 70 21 100 100 WSW 5 7 29.96 1015 10 16 0.00 0.00
10:35 am 10:35 Mostly Cloudy with Rain 69 20.8 69 20.8 100 100 WSW 7 11 29.97 1015 10 16 0.00 0.00
10:55 am 10:55 Cloudy with Light Rain 69 20.8 69 20.8 100 100 WSW 5 7 29.98 1015 10 16 0.02 0.51
11:15 am 11:15 Cloudy 70 21 70 21 100 100 WSW 6 9 29.99 1016 10 16 0.00 0.00
11:35 am 11:35 Cloudy with Light Rain 70 20.9 70 20.9 100 100 WSW 5 7 29.99 1016 10 16 0.00 0.00
11:55 am 11:55 Cloudy 70 21.3 70 21.3 100 100 WSW 6 9 29.99 1016 10 16 0.00 0.00
12:15 pm 12:15 Cloudy with Light Rain 71 21.9 71 21.9 100 100 WSW 6 9 29.99 1016 10 16 0.00 0.00
12:35 pm 12:35 Cloudy 71 21.9 71 21.9 100 100 SW 8 13 30.00 1016 10 16 0.00 0.00
12:55 pm 12:55 Mostly Cloudy 71 21.8 71 21.8 100 100 WSW 7 11 30.00 1016 10 16 0.00 0.00
1:15 pm 13:15 Mostly Cloudy 73 22.5 73 22.5 100 100 WSW 7 11 30.00 1016 10 16 0.00 0.00
1:35 pm 13:35 Mostly Cloudy 73 23 73 23 100 100 WSW 8 13 29.99 1015 10 16 0.00 0.00
1:55 pm 13:55 Mostly Cloudy 74 23.1 74 23.1 100 100 WSW 6 9 29.99 1015 10 16 0.00 0.00
2:15 pm 14:15 Cloudy 73 23 73 22.9 99 99 W 7 11 29.99 1015 10 16 0.00 0.00
2:35 pm 14:35 Mostly Cloudy 73 23 73 22.8 99 99 WSW 9 15 29.99 1015 10 16 0.00 0.00
2:55 pm 14:55 Mostly Cloudy 75 24 74 23.3 96 96 SW 8 13 29.96 1015 10 16 0.00 0.00
3:15 pm 15:15 Mostly Cloudy 77 24.8 73 22.5 87 87 WSW 7 11 29.95 1014 10 16 0.00 0.00
3:35 pm 15:35 Mostly Cloudy 76 24.5 71 21.7 84 84 W 6 9 29.95 1014 10 16 0.00 0.00
3:55 pm 15:55 Partly Cloudy 76 24.5 72 22 86 86 WSW 5 7 29.95 1014 10 16 0.00 0.00
4:15 pm 16:15 Partly Cloudy 77 24.8 72 22.2 86 86 Calm 29.94 1014 10 16 0.00 0.00
4:35 pm 16:35 Mostly Cloudy 77 25 71 21.6 81 81 W 3 6 29.94 1014 10 16 0.00 0.00
4:55 pm 16:55 Partly Cloudy 77 25.1 70 21 78 78 WNW 5 7 29.94 1014 10 16 0.00 0.00
5:15 pm 17:15 Partly Cloudy 76 24.3 72 22.3 89 89 N 10 17 29.94 1014 10 16 0.00 0.00
5:35 pm 17:35 Mostly Cloudy 74 23.5 72 22 91 91 N 8 13 29.94 1014 10 16 0.00 0.00
5:55 pm 17:55 Cloudy 74 23.2 72 22.2 94 94 N 7 11 29.96 1014 10 16 0.00 0.00
6:15 pm 18:15 Mostly Cloudy 74 23.2 71 21.7 91 91 N 6 9 29.96 1014 10 16 0.00 0.00
6:35 pm 18:35 Cloudy 74 23.1 71 21.7 92 92 N 3 6 29.96 1014 10 16 0.00 0.00
6:55 pm 18:55 Mostly Cloudy 73 23 72 22.4 96 96 NNE 3 6 29.95 1014 10 16 0.00 0.00
7:15 pm 19:15 Mostly Cloudy 73 22.7 73 22.6 99 99 NNE 3 6 29.95 1014 10 16 0.00 0.00
7:35 pm 19:35 Partly Cloudy 73 22.5 71 21.9 96 96 NNE 5 7 29.95 1014 10 16 0.00 0.00
7:55 pm 19:55 Partly Cloudy 72 22 72 22 100 100 NNE 5 7 29.95 1014 10 16 0.00 0.00
8:15 pm 20:15 Partly Cloudy 71 21.8 71 21.8 100 100 NNE 3 6 29.95 1014 10 16 0.00 0.00
8:35 pm 20:35 Clear 70 21 70 21 100 100 NNE 5 7 29.95 1014 10 16 0.00 0.00
8:55 pm 20:55 Clear 69 20.5 69 20.5 100 100 N 3 6 29.95 1014 10 16 0.00 0.00
9:15 pm 21:15 Clear 68 20.2 68 20.2 100 100 NNE 3 6 29.97 1015 10 16 0.00 0.00
9:35 pm 21:35 Clear 69 20.5 69 20.5 100 100 NNE 3 6 29.96 1015 10 16 0.00 0.00
9:55 pm 21:55 Clear 69 20.5 69 20.5 100 100 NE 3 6 29.97 1015 10 16 0.00 0.00
10:15 pm 22:15 Clear 69 20.4 69 20.4 100 100 ENE 5 7 29.99 1015 10 16 0.00 0.00
10:35 pm 22:35 Partly Cloudy 68 20 68 20 100 100 NNE 5 7 30.00 1016 10 16 0.00 0.00
10:55 pm 22:55 Partly Cloudy 68 20 68 20 100 100 NE 3 6 30.01 1016 10 16 0.00 0.00
11:15 pm 23:15 Mostly Cloudy 68 19.9 68 19.9 100 100 NE 3 6 30.01 1016 10 16 0.00 0.00
11:35 pm 23:35 Cloudy 68 20 68 20 100 100 NE 3 6 30.01 1016 10 16 0.00 0.00
11:55 pm 23:55 Cloudy 68 20.2 68 20.2 100 100 ENE 6 9 30.01 1016 10 16 0.00 0.00

Powered by AerisWeather